Tracking 20241 objects as of 25-Jan-2020
HD Live streaming from Space Station
objects crossing your sky now

FENGYUN 1C DEB

Track FENGYUN 1C DEB now!
10-day predictions


NORAD ID: 37442
Int'l Code: 1999-025EHL
Perigee: 684.0 km
Apogee: 741.6 km
Inclination: 99.2 °
Period: 98.9 minutes
Semi major axis: 7083 km
RCS: 0.0129 m2 (small)
Launch date: May 10, 1999
Source: People's Republic of China (PRC)
Launch site: Taiyaun Space Center, China (TSC)

Note: This is SATELLITE DEBRIS
aabbcc
Your satellite tracking list
Your tracking list is empty




NASA's NSSDC Master Catalog

Two Line Element Set (TLE):
1 37442U 99025EHL 20024.18657576  .00001515  00000-0  35188-3 0  9998
2 37442  99.1569  30.3794 0040635 104.0097 256.5621 14.56146071550895
Source of the keplerian elements: AFSPC